,,Stat5,,Stat1,,Stat2,,Stat3,,Stat4,,Wind1,,Wind1,
time,status,PA1M_AVG,status,PR1M_SUM,status,RH1M_AVG,status,SR1M_AVG,status,TA1M_AVG,status,W1dAve1m,status,W1sAve1m,
2001-04-16, 00:00:00,VALID,919.727,VALID,0,VALID,98.585,VALID,-0.0169808,VALID,19.8744,VALID,266,VALID,0,
2001-04-16, 00:01:00,VALID,919.716,VALID,0,VALID,98.5939,VALID,-0.0339617,VALID,19.8488,VALID,266,VALID,0,
2001-04-16, 00:02:00,VALID,919.706,VALID,0,VALID,98.6091,VALID,-0.0679233,VALID,19.8361,VALID,266,VALID,0,
2001-04-16, 00:03:00,VALID,919.693,VALID,0,VALID,98.6358,VALID,-0.0169808,VALID,19.8294,VALID,266,VALID,0,
2001-04-16, 00:04:00,VALID,919.689,VALID,0,VALID,98.6867,VALID,-0.0509425,VALID,19.8458,VALID,266,VALID,0,
2001-04-16, 00:05:00,VALID,919.658,VALID,0,VALID,98.7706,VALID,-0.0169808,VALID,19.901,VALID,283,VALID,0.19449,
2001-04-16, 00:06:00,VALID,919.648,VALID,0,VALID,98.7833,VALID,-0.0339617,VALID,19.9169,VALID,282,VALID,0.192356,
2001-04-16, 00:07:00,VALID,919.62,VALID,0,VALID,98.7604,VALID,-0.0679233,VALID,19.9037,VALID,238,VALID,0.269231,
2001-04-16, 00:08:00,VALID,919.586,VALID,0,VALID,98.749,VALID,-0.0339617,VALID,19.8908,VALID,191,VALID,0.481571,
2001-04-16, 00:09:00,VALID,919.144,VALID,0,VALID,98.7681,VALID,-0.0169808,VALID,19.8846,VALID,184,VALID,0.766314,
2001-04-16, 00:10:00,VALID,919.555,VALID,0,VALID,98.7744,VALID,-0.0169808,VALID,19.8881,VALID,166,VALID,1.05921,
2001-04-16, 00:11:00,VALID,919.564,VALID,0,VALID,98.7681,VALID,-0.0169808,VALID,19.865,VALID,160,VALID,0.778505,
2001-04-16, 00:12:00,VALID,919.548,VALID,0,VALID,98.8062,VALID,0,VALID,19.8617,VALID,162,VALID,0.58572,
2001-04-16, 00:13:00,VALID,919.557,VALID,0,VALID,98.791,VALID,-0.0679233,VALID,19.8521,VALID,167,VALID,0.566189,
2001-04-16, 00:14:00,VALID,919.57,VALID,0,VALID,98.7846,VALID,-0.0339617,VALID,19.8523,VALID,157,VALID,0.508018,
2001-04-16, 00:15:00,VALID,919.555,VALID,0,VALID,98.7681,VALID,-0.0339617,VALID,19.8227,VALID,143,VALID,0.604441,
2001-04-16, 00:16:00,VALID,919.525,VALID,0,VALID,98.7732,VALID,-0.0339617,VALID,19.8299,VALID,140,VALID,0.606554,
2001-04-16, 00:17:00,VALID,919.52,VALID,0,VALID,98.7465,VALID,0,VALID,19.7969,VALID,114,VALID,0.472545,
2001-04-16, 00:18:00,VALID,919.492,VALID,0,VALID,98.7579,VALID,0,VALID,19.7971,VALID,135,VALID,0.325452,
2001-04-16, 00:19:00,VALID,919.479,VALID,0,VALID,98.7897,VALID,0,VALID,19.8133,VALID,106,VALID,0.225361,
2001-04-16, 00:20:00,VALID,919.474,VALID,0,VALID,98.8278,VALID,0,VALID,19.82,VALID,107,VALID,0.141602,
2001-04-16, 00:21:00,VALID,919.48,VALID,0,VALID,98.8418,VALID,0,VALID,19.8424,VALID,107,VALID,0.136719,
2001-04-16, 00:22:00,VALID,919.493,VALID,0,VALID,98.8609,VALID,-0.0169808,VALID,19.8588,VALID,106,VALID,0.0339227,
2001-04-16, 00:23:00,VALID,919.494,VALID,0,VALID,98.8634,VALID,-0.0169808,VALID,19.8585,VALID,91,VALID,0.414663,
2001-04-16, 00:24:00,VALID,919.478,VALID,0,VALID,98.8711,VALID,0,VALID,19.8553,VALID,91,VALID,0.265224,
2001-04-16, 00:25:00,VALID,919.429,VALID,0,VALID,98.8749,VALID,-0.0509425,VALID,19.8585,VALID,109,VALID,0.398037,
2001-04-16, 00:26:00,VALID,919.37,VALID,0,VALID,98.8889,VALID,0,VALID,19.8749,VALID,113,VALID,0.404412,
2001-04-16, 00:27:00,VALID,919.322,VALID,0,VALID,98.894,VALID,-0.0169808,VALID,19.8819,VALID,131,VALID,0.571484,
2001-04-16, 00:28:00,VALID,919.262,VALID,0,VALID,98.9181,VALID,-0.0169808,VALID,19.8881,VALID,132,VALID,0.565538,
2001-04-16, 00:29:00,VALID,919.222,VALID,0,VALID,98.9296,VALID,-0.0169808,VALID,19.9008,VALID,132,VALID,0.580729,
2001-04-16, 00:30:00,VALID,919.169,VALID,0,VALID,98.9321,VALID,-0.0169808,VALID,19.9037,VALID,138,VALID,0.556588,
2001-04-16, 00:31:00,VALID,919.14,VALID,0,VALID,98.9283,VALID,-0.0169808,VALID,19.904,VALID,148,VALID,0.474712,
2001-04-16, 00:32:00,VALID,919.117,VALID,0,VALID,98.913,VALID,0,VALID,19.8809,VALID,157,VALID,0.447483,
2001-04-16, 00:33:00,VALID,919.092,VALID,0,VALID,98.955,VALID,-0.0339617,VALID,19.8844,VALID,157,VALID,0.438978,
2001-04-16, 00:34:00,VALID,919.069,VALID,0,VALID,98.9766,VALID,0,VALID,19.9035,VALID,157,VALID,0.331814,
2001-04-16, 00:35:00,VALID,919.057,VALID,0,VALID,98.9766,VALID,-0.0339617,VALID,19.9097,VALID,157,VALID,0.0538651,
2001-04-16, 00:36:00,VALID,919.052,VALID,0,VALID,98.9677,VALID,-0.0169808,VALID,19.8938,VALID,157,VALID,0.0377956,
2001-04-16, 00:37:00,VALID,919.022,VALID,0,VALID,98.9448,VALID,-0.0339617,VALID,19.8811,VALID,157,VALID,0.0657393,
2001-04-16, 00:38:00,VALID,919.003,VALID,0,VALID,98.9448,VALID,-0.0339617,VALID,19.8617,VALID,157,VALID,0,
2001-04-16, 00:39:00,VALID,918.959,VALID,0,VALID,98.9614,VALID,0,VALID,19.8488,VALID,155,VALID,0.0135691,
2001-04-16, 00:40:00,VALID,918.931,VALID,0,VALID,98.9156,VALID,0,VALID,19.8138,VALID,155,VALID,0.279561,
2001-04-16, 00:41:00,VALID,918.891,VALID,0,VALID,98.9232,VALID,-0.0339617,VALID,19.7812,VALID,155,VALID,0.524609,
2001-04-16, 00:42:00,VALID,918.869,VALID,0,VALID,98.9715,VALID,-0.0509425,VALID,19.7775,VALID,168,VALID,0.524054,
2001-04-16, 00:43:00,VALID,918.848,VALID,0,VALID,98.9474,VALID,-0.0169808,VALID,19.7817,VALID,192,VALID,0.511384,
2001-04-16, 00:44:00,VALID,918.82,VALID,0,VALID,98.9957,VALID,0,VALID,19.7912,VALID,205,VALID,0.447846,
2001-04-16, 00:45:00,VALID,918.802,VALID,0,VALID,98.9753,VALID,0,VALID,19.7812,VALID,211,VALID,0.397786,
2001-04-16, 00:46:00,VALID,918.775,VALID,0,VALID,98.9779,VALID,-0.0339617,VALID,19.7618,VALID,212,VALID,0.548986,
2001-04-16, 00:47:00,VALID,918.77,VALID,0,VALID,99.0084,VALID,-0.0339617,VALID,19.7586,VALID,212,VALID,0.553886,
2001-04-16, 00:48:00,VALID,918.736,VALID,0,VALID,99.0046,VALID,0,VALID,19.7517,VALID,211,VALID,0.160362,
2001-04-16, 00:49:00,VALID,918.708,VALID,0,VALID,98.9741,VALID,-0.0339617,VALID,19.7258,VALID,207,VALID,0.297081,
2001-04-16, 00:50:00,VALID,918.682,VALID,0,VALID,99.0148,VALID,-0.0169808,VALID,19.7196,VALID,189,VALID,0.434122,
2001-04-16, 00:51:00,VALID,918.655,VALID,0,VALID,98.9512,VALID,-0.0339617,VALID,19.6781,VALID,166,VALID,0.384983,
2001-04-16, 00:52:00,VALID,918.638,VALID,0,VALID,98.9461,VALID,-0.0339617,VALID,19.6326,VALID,164,VALID,0.417441,
2001-04-16, 00:53:00,VALID,918.623,VALID,0,VALID,99.0135,VALID,-0.0169808,VALID,19.6488,VALID,164,VALID,0.519326,
2001-04-16, 00:54:00,VALID,918.622,VALID,0,VALID,99.0885,VALID,-0.0169808,VALID,19.6774,VALID,166,VALID,0.477965,
2001-04-16, 00:55:00,VALID,918.601,VALID,0,VALID,99.1114,VALID,-0.0169808,VALID,19.7325,VALID,179,VALID,0.450521,
2001-04-16, 00:56:00,VALID,918.571,VALID,0,VALID,99.1089,VALID,0,VALID,19.7549,VALID,200,VALID,0.365076,
2001-04-16, 00:57:00,VALID,918.57,VALID,0,VALID,99.1457,VALID,-0.0169808,VALID,19.7807,VALID,202,VALID,0.418791,
2001-04-16, 00:58:00,VALID,918.552,VALID,0,VALID,99.1356,VALID,-0.0169808,VALID,19.8071,VALID,202,VALID,0.226963,
2001-04-16, 00:59:00,VALID,918.541,VALID,0,VALID,99.1,VALID,-0.0169808,VALID,19.8068,VALID,202,VALID,0,
2001-04-16, 01:00:00,VALID,918.533,VALID,0,VALID,99.0504,VALID,-0.0169808,VALID,19.7457,VALID,202,VALID,0,
2001-04-16, 01:01:00,VALID,918.537,VALID,0,VALID,99.0122,VALID,0,VALID,19.6913,VALID,202,VALID,0,
2001-04-16, 01:02:00,VALID,918.541,VALID,0,VALID,98.9944,VALID,-0.0169808,VALID,19.6582,VALID,202,VALID,0,
2001-04-16, 01:03:00,VALID,918.533,VALID,0,VALID,99.0059,VALID,-0.0849042,VALID,19.6615,VALID,202,VALID,0,
2001-04-16, 01:04:00,VALID,918.525,VALID,0,VALID,98.9868,VALID,-0.0339617,VALID,19.6458,VALID,202,VALID,0,
2001-04-16, 01:05:00,VALID,918.531,VALID,0,VALID,98.9906,VALID,-0.0339617,VALID,19.6329,VALID,202,VALID,0,
2001-04-16, 01:06:00,VALID,918.502,VALID,0,VALID,99.0173,VALID,-0.0339617,VALID,19.6689,VALID,202,VALID,0,
2001-04-16, 01:07:00,VALID,918.499,VALID,0,VALID,99.0478,VALID,-0.0169808,VALID,19.6878,VALID,223,VALID,0.143229,
2001-04-16, 01:08:00,VALID,918.509,VALID,0,VALID,99.058,VALID,-0.0509425,VALID,19.6811,VALID,224,VALID,0,
2001-04-16, 01:09:00,VALID,918.513,VALID,0,VALID,99.058,VALID,-0.101885,VALID,19.6684,VALID,224,VALID,0,
2001-04-16, 01:10:00,VALID,918.526,VALID,0,VALID,99.044,VALID,-0.0339617,VALID,19.6617,VALID,224,VALID,0,
2001-04-16, 01:11:00,VALID,918.525,VALID,0,VALID,99.03,VALID,-0.0679233,VALID,19.656,VALID,224,VALID,0,
2001-04-16, 01:12:00,VALID,918.552,VALID,0,VALID,99.016,VALID,-0.0339617,VALID,19.6299,VALID,224,VALID,0,
2001-04-16, 01:13:00,VALID,918.556,VALID,0,VALID,98.9995,VALID,-0.0509425,VALID,19.5978,VALID,224,VALID,0,
2001-04-16, 01:14:00,VALID,918.546,VALID,0,VALID,98.9207,VALID,-0.0679233,VALID,19.5071,VALID,224,VALID,0,
2001-04-16, 01:15:00,VALID,918.542,VALID,0,VALID,98.8876,VALID,-0.0339617,VALID,19.4363,VALID,224,VALID,0,
2001-04-16, 01:16:00,VALID,918.534,VALID,0,VALID,98.894,VALID,-0.0169808,VALID,19.3906,VALID,224,VALID,0,
2001-04-16, 01:17:00,VALID,918.533,VALID,0,VALID,98.9308,VALID,-0.0679233,VALID,19.3883,VALID,224,VALID,0,
2001-04-16, 01:18:00,VALID,918.515,VALID,0,VALID,99.0122,VALID,-0.0509425,VALID,19.4328,VALID,317,VALID,0.321289,
2001-04-16, 01:19:00,VALID,918.51,VALID,0,VALID,99.0974,VALID,-0.0849042,VALID,19.5397,VALID,321,VALID,0.19401,
2001-04-16, 01:20:00,VALID,918.496,VALID,0,VALID,99.1597,VALID,-0.0849042,VALID,19.656,VALID,321,VALID,0,
2001-04-16, 01:21:00,VALID,918.503,VALID,0,VALID,99.1597,VALID,-0.0679233,VALID,19.6846,VALID,321,VALID,0,
2001-04-16, 01:22:00,VALID,918.486,VALID,0,VALID,99.1648,VALID,-0.0849042,VALID,19.698,VALID,340,VALID,0.343339,
2001-04-16, 01:23:00,VALID,918.483,VALID,0,VALID,99.189,VALID,0.0339617,VALID,19.7904,VALID,12,VALID,0.514106,
2001-04-16, 01:24:00,VALID,918.467,VALID,0,VALID,99.1788,VALID,0.0509425,VALID,19.8158,VALID,17,VALID,0.0817145,
2001-04-16, 01:25:00,VALID,918.451,VALID,0,VALID,99.1635,VALID,0.0169808,VALID,19.7735,VALID,360,VALID,0,
2001-04-16, 01:26:00,VALID,918.433,VALID,0,VALID,99.1635,VALID,0.0339617,VALID,19.784,VALID,336,VALID,0,
2001-04-16, 01:27:00,VALID,918.406,VALID,0,VALID,99.1508,VALID,0.0169808,VALID,19.8006,VALID,313,VALID,0,
2001-04-16, 01:28:00,VALID,918.387,VALID,0,VALID,99.1521,VALID,0,VALID,19.7942,VALID,313,VALID,0.064596,
2001-04-16, 01:29:00,VALID,918.355,VALID,0,VALID,99.1419,VALID,0.0169808,VALID,19.7904,VALID,315,VALID,0.152148,
2001-04-16, 01:30:00,VALID,918.325,VALID,0,VALID,99.1368,VALID,0,VALID,19.7673,VALID,318,VALID,0,
2001-04-16, 01:31:00,VALID,918.286,VALID,0,VALID,99.1305,VALID,0.0339617,VALID,19.7611,VALID,318,VALID,0,
2001-04-16, 01:32:00,VALID,918.269,VALID,0,VALID,99.1305,VALID,0,VALID,19.7616,VALID,317,VALID,0,
2001-04-16, 01:33:00,VALID,918.258,VALID,0,VALID,99.1292,VALID,0.0169808,VALID,19.7385,VALID,312,VALID,0,
2001-04-16, 01:34:00,VALID,918.24,VALID,0,VALID,99.1368,VALID,0.0339617,VALID,19.7353,VALID,301,VALID,0,
2001-04-16, 01:35:00,VALID,918.227,VALID,0,VALID,99.1305,VALID,0.0169808,VALID,19.7256,VALID,291,VALID,0,
2001-04-16, 01:36:00,VALID,918.217,VALID,0,VALID,99.1356,VALID,0.0339617,VALID,19.7154,VALID,286,VALID,0,
2001-04-16, 01:37:00,VALID,918.228,VALID,0,VALID,99.119,VALID,0,VALID,19.7129,VALID,286,VALID,0,
2001-04-16, 01:38:00,VALID,918.23,VALID,0,VALID,99.0707,VALID,-0.0509425,VALID,19.6659,VALID,286,VALID,0,
2001-04-16, 01:39:00,VALID,918.235,VALID,0,VALID,99.0593,VALID,-0.101885,VALID,19.6073,VALID,286,VALID,0,
2001-04-16, 01:40:00,VALID,918.245,VALID,0,VALID,99.016,VALID,-0.101885,VALID,19.5496,VALID,286,VALID,0,
2001-04-16, 01:41:00,VALID,918.251,VALID,0,VALID,99.0084,VALID,-0.0849042,VALID,19.4882,VALID,286,VALID,0,
2001-04-16, 01:42:00,VALID,918.241,VALID,0,VALID,99.002,VALID,-0.0679233,VALID,19.443,VALID,286,VALID,0,
2001-04-16, 01:43:00,VALID,918.234,VALID,0,VALID,99.0211,VALID,-0.101885,VALID,19.4167,VALID,286,VALID,0,
2001-04-16, 01:44:00,VALID,918.232,VALID,0,VALID,99.0669,VALID,-0.0849042,VALID,19.4234,VALID,286,VALID,0,
2001-04-16, 01:45:00,VALID,918.235,VALID,0,VALID,99.0872,VALID,-0.0509425,VALID,19.4199,VALID,286,VALID,0,
2001-04-16, 01:46:00,VALID,918.242,VALID,0,VALID,99.0834,VALID,-0.0509425,VALID,19.4167,VALID,286,VALID,0,
2001-04-16, 01:47:00,VALID,918.243,VALID,0,VALID,99.0542,VALID,-0.0339617,VALID,19.4045,VALID,286,VALID,0,
2001-04-16, 01:48:00,VALID,918.23,VALID,0,VALID,99.0491,VALID,-0.0849042,VALID,19.3782,VALID,286,VALID,0,
2001-04-16, 01:49:00,VALID,918.211,VALID,0,VALID,99.0745,VALID,-0.0679233,VALID,19.3814,VALID,286,VALID,0,
2001-04-16, 01:50:00,VALID,918.181,VALID,0,VALID,99.0885,VALID,-0.0679233,VALID,19.3784,VALID,286,VALID,0,
2001-04-16, 01:51:00,VALID,918.142,VALID,0,VALID,99.0974,VALID,-0.0849042,VALID,19.3655,VALID,286,VALID,0,
2001-04-16, 01:52:00,VALID,918.112,VALID,0,VALID,99.1826,VALID,-0.0679233,VALID,19.4008,VALID,286,VALID,0,
2001-04-16, 01:53:00,VALID,918.085,VALID,0,VALID,99.2233,VALID,0.0339617,VALID,19.4604,VALID,286,VALID,0,
2001-04-16, 01:54:00,VALID,918.078,VALID,0,VALID,99.1928,VALID,0.0509425,VALID,19.4893,VALID,286,VALID,0,
2001-04-16, 01:55:00,VALID,918.071,VALID,0,VALID,99.1521,VALID,0.0169808,VALID,19.4515,VALID,220,VALID,0,
2001-04-16, 01:56:00,VALID,918.073,VALID,0,VALID,99.119,VALID,0.0849042,VALID,19.4025,VALID,104,VALID,0.440995,
2001-04-16, 01:57:00,VALID,918.079,VALID,0,VALID,99.1559,VALID,0.0169808,VALID,19.4351,VALID,97,VALID,0.801398,
2001-04-16, 01:58:00,VALID,918.061,VALID,0,VALID,99.1674,VALID,0.0169808,VALID,19.4512,VALID,97,VALID,0.476997,
2001-04-16, 01:59:00,VALID,918.04,VALID,0,VALID,99.1661,VALID,0.0169808,VALID,19.4706,VALID,97,VALID,0.0399554,
2001-04-16, 02:00:00,VALID,918.014,VALID,0,VALID,99.1775,VALID,0.0509425,VALID,19.454,VALID,97,VALID,0,
2001-04-16, 02:01:00,VALID,917.978,VALID,0,VALID,99.1775,VALID,0.0169808,VALID,19.4669,VALID,97,VALID,0,
2001-04-16, 02:02:00,VALID,917.925,VALID,0,VALID,99.1877,VALID,0.0339617,VALID,19.4808,VALID,97,VALID,0,
2001-04-16, 02:03:00,VALID,917.887,VALID,0,VALID,99.1928,VALID,0.0509425,VALID,19.4835,VALID,97,VALID,0,
2001-04-16, 02:04:00,VALID,917.827,VALID,0,VALID,99.1826,VALID,0,VALID,19.494,VALID,97,VALID,0,
2001-04-16, 02:05:00,VALID,917.781,VALID,0,VALID,99.1775,VALID,0.0169808,VALID,19.487,VALID,97,VALID,0,
2001-04-16, 02:06:00,VALID,917.744,VALID,0,VALID,99.1699,VALID,0.0509425,VALID,19.4835,VALID,97,VALID,0,
2001-04-16, 02:07:00,VALID,917.73,VALID,0,VALID,99.1813,VALID,0.0169808,VALID,19.4806,VALID,97,VALID,0,
2001-04-16, 02:08:00,VALID,917.72,VALID,0,VALID,99.1775,VALID,0.0169808,VALID,19.4806,VALID,97,VALID,0,
2001-04-16, 02:09:00,VALID,917.689,VALID,0,VALID,99.2004,VALID,0.0509425,VALID,19.4999,VALID,97,VALID,0,
2001-04-16, 02:10:00,VALID,917.679,VALID,0,VALID,99.1928,VALID,0.0509425,VALID,19.5096,VALID,97,VALID,0,
2001-04-16, 02:11:00,VALID,917.659,VALID,0,VALID,99.1826,VALID,0.0509425,VALID,19.5034,VALID,97,VALID,0,
2001-04-16, 02:12:00,VALID,917.628,VALID,0,VALID,99.1877,VALID,0.0509425,VALID,19.4997,VALID,97,VALID,0,
2001-04-16, 02:13:00,VALID,917.615,VALID,0,VALID,99.2004,VALID,0.0509425,VALID,19.5161,VALID,97,VALID,0,
2001-04-16, 02:14:00,VALID,917.603,VALID,0,VALID,99.203,VALID,0,VALID,19.5158,VALID,97,VALID,0,
2001-04-16, 02:15:00,VALID,917.608,VALID,0,VALID,99.2055,VALID,0.0169808,VALID,19.5119,VALID,97,VALID,0,
2001-04-16, 02:16:00,VALID,917.607,VALID,0,VALID,99.2042,VALID,0.0849042,VALID,19.5221,VALID,97,VALID,0,
2001-04-16, 02:17:00,VALID,917.629,VALID,0,VALID,99.1979,VALID,0.0339617,VALID,19.5094,VALID,97,VALID,0,
2001-04-16, 02:18:00,VALID,917.641,VALID,0,VALID,99.1991,VALID,0.0339617,VALID,19.5059,VALID,97,VALID,0.00147804,
2001-04-16, 02:19:00,VALID,917.642,VALID,0,VALID,99.1712,VALID,0.0339617,VALID,19.4642,VALID,97,VALID,0.188834,
2001-04-16, 02:20:00,VALID,917.652,VALID,0,VALID,99.1674,VALID,0.0509425,VALID,19.4351,VALID,97,VALID,0.0216797,
2001-04-16, 02:21:00,VALID,917.635,VALID,0,VALID,99.1763,VALID,0.0169808,VALID,19.4324,VALID,100,VALID,0.0460526,
2001-04-16, 02:22:00,VALID,917.631,VALID,0,VALID,99.1966,VALID,0.0679233,VALID,19.4547,VALID,113,VALID,0,
2001-04-16, 02:23:00,VALID,917.633,VALID,0,VALID,99.2157,VALID,-0.0509425,VALID,19.4753,VALID,114,VALID,0,
2001-04-16, 02:24:00,VALID,917.627,VALID,0,VALID,99.2271,VALID,-0.0509425,VALID,19.5012,VALID,114,VALID,0,
2001-04-16, 02:25:00,VALID,917.638,VALID,0,VALID,99.2373,VALID,0,VALID,19.5238,VALID,115,VALID,0.161607,
2001-04-16, 02:26:00,VALID,917.644,VALID,0,VALID,99.236,VALID,-0.0339617,VALID,19.5531,VALID,117,VALID,0.594351,
2001-04-16, 02:27:00,VALID,917.667,VALID,0,VALID,99.2373,VALID,-0.0849042,VALID,19.5367,VALID,117,VALID,0.435764,
2001-04-16, 02:28:00,VALID,917.685,VALID,0,VALID,99.2322,VALID,-0.0509425,VALID,19.5593,VALID,117,VALID,0.461149,
2001-04-16, 02:29:00,VALID,917.687,VALID,0,VALID,99.2284,VALID,-0.0679233,VALID,19.5397,VALID,117,VALID,0.376803,
2001-04-16, 02:30:00,VALID,917.693,VALID,0,VALID,99.2322,VALID,-0.0679233,VALID,19.5399,VALID,117,VALID,0,
2001-04-16, 02:31:00,VALID,917.71,VALID,0,VALID,99.2195,VALID,-0.0849042,VALID,19.5069,VALID,116,VALID,0,
2001-04-16, 02:32:00,VALID,917.718,VALID,0,VALID,99.2042,VALID,-0.0679233,VALID,19.4977,VALID,106,VALID,0.318201,
2001-04-16, 02:33:00,VALID,917.728,VALID,0,VALID,99.2169,VALID,-0.0509425,VALID,19.5111,VALID,104,VALID,0.979818,
2001-04-16, 02:34:00,VALID,917.729,VALID,0,VALID,99.2322,VALID,-0.0509425,VALID,19.5042,VALID,109,VALID,0.868032,
2001-04-16, 02:35:00,VALID,917.745,VALID,0,VALID,99.2462,VALID,-0.0509425,VALID,19.5461,VALID,102,VALID,0.631579,
2001-04-16, 02:36:00,VALID,917.739,VALID,0,VALID,99.264,VALID,-0.0849042,VALID,19.5755,VALID,101,VALID,0.478766,
2001-04-16, 02:37:00,VALID,917.734,VALID,0,VALID,99.2602,VALID,-0.0509425,VALID,19.5978,VALID,73,VALID,0.606571,
2001-04-16, 02:38:00,VALID,917.738,VALID,0,VALID,99.292,VALID,-0.0169808,VALID,19.6684,VALID,64,VALID,0.510135,
2001-04-16, 02:39:00,VALID,917.732,VALID,0,VALID,99.2869,VALID,-0.0509425,VALID,19.7012,VALID,80,VALID,0.902344,
2001-04-16, 02:40:00,VALID,917.726,VALID,0,VALID,99.2843,VALID,-0.101885,VALID,19.7276,VALID,94,VALID,1.14243,
2001-04-16, 02:41:00,VALID,917.703,VALID,0,VALID,99.2945,VALID,-0.0679233,VALID,19.7442,VALID,96,VALID,0.776442,
2001-04-16, 02:42:00,VALID,917.687,VALID,0,VALID,99.2805,VALID,-0.0679233,VALID,19.7564,VALID,98,VALID,0.69761,
2001-04-16, 02:43:00,VALID,917.667,VALID,0,VALID,99.2818,VALID,-0.0679233,VALID,19.7825,VALID,96,VALID,0.394737,
2001-04-16, 02:44:00,VALID,917.635,VALID,0,VALID,99.2704,VALID,-0.0339617,VALID,19.7725,VALID,96,VALID,0.313133,
2001-04-16, 02:45:00,VALID,917.62,VALID,0,VALID,99.2678,VALID,-0.0679233,VALID,19.7787,VALID,96,VALID,0.350694,
2001-04-16, 02:46:00,VALID,917.61,VALID,0,VALID,99.2729,VALID,-0.0849042,VALID,19.7884,VALID,97,VALID,0.409505,
2001-04-16, 02:47:00,VALID,917.616,VALID,0,VALID,99.2615,VALID,-0.0679233,VALID,19.7889,VALID,104,VALID,0.164474,
2001-04-16, 02:48:00,VALID,917.615,VALID,0,VALID,99.25,VALID,-0.0679233,VALID,19.7693,VALID,106,VALID,0.000205592,
2001-04-16, 02:49:00,VALID,917.628,VALID,0,VALID,99.2386,VALID,-0.0849042,VALID,19.7425,VALID,105,VALID,0.449002,
2001-04-16, 02:50:00,VALID,917.659,VALID,0,VALID,99.2615,VALID,0,VALID,19.7457,VALID,89,VALID,0.592857,
2001-04-16, 02:51:00,VALID,917.681,VALID,0,VALID,99.2475,VALID,0,VALID,19.74,VALID,84,VALID,0.748355,
2001-04-16, 02:52:00,VALID,917.695,VALID,0,VALID,99.25,VALID,-0.0169808,VALID,19.733,VALID,90,VALID,0.922676,
2001-04-16, 02:53:00,VALID,917.689,VALID,0,VALID,99.2487,VALID,-0.0509425,VALID,19.7467,VALID,95,VALID,0.684211,
2001-04-16, 02:54:00,VALID,917.679,VALID,0,VALID,99.2615,VALID,-0.0509425,VALID,19.7427,VALID,94,VALID,0.700452,
2001-04-16, 02:55:00,VALID,917.664,VALID,0,VALID,99.2538,VALID,-0.0169808,VALID,19.7295,VALID,92,VALID,0.722862,
2001-04-16, 02:56:00,VALID,917.648,VALID,0,VALID,99.2754,VALID,-0.0339617,VALID,19.7425,VALID,85,VALID,0.826122,
2001-04-16, 02:57:00,VALID,917.63,VALID,0,VALID,99.2716,VALID,0,VALID,19.7693,VALID,92,VALID,0.555489,
2001-04-16, 02:58:00,VALID,917.624,VALID,0,VALID,99.2716,VALID,-0.0509425,VALID,19.7787,VALID,85,VALID,0.888221,
2001-04-16, 02:59:00,VALID,917.62,VALID,0,VALID,99.2754,VALID,-0.0509425,VALID,19.8016,VALID,97,VALID,0.79136,
2001-04-16, 03:00:00,VALID,917.621,VALID,0,VALID,99.2742,VALID,0,VALID,19.7979,VALID,78,VALID,0.645898,
2001-04-16, 03:01:00,VALID,917.625,VALID,0,VALID,99.264,VALID,-0.0169808,VALID,19.8178,VALID,70,VALID,0.560547,
2001-04-16, 03:02:00,VALID,917.636,VALID,0,VALID,99.2665,VALID,-0.0509425,VALID,19.8041,VALID,62,VALID,0.478516,
2001-04-16, 03:03:00,VALID,917.65,VALID,0,VALID,99.278,VALID,-0.0339617,VALID,19.817,VALID,83,VALID,0.222973,
2001-04-16, 03:04:00,VALID,917.656,VALID,0,VALID,99.2665,VALID,-0.0169808,VALID,19.8168,VALID,78,VALID,0.342311,
2001-04-16, 03:05:00,VALID,917.658,VALID,0,VALID,99.2602,VALID,-0.0169808,VALID,19.8361,VALID,79,VALID,0.351997,
2001-04-16, 03:06:00,VALID,917.663,VALID,0,VALID,99.2691,VALID,-0.0169808,VALID,19.8434,VALID,82,VALID,0.466005,
2001-04-16, 03:07:00,VALID,917.659,VALID,0,VALID,99.2704,VALID,-0.0339617,VALID,19.8434,VALID,71,VALID,0.40408,
2001-04-16, 03:08:00,VALID,917.664,VALID,0,VALID,99.264,VALID,-0.101885,VALID,19.8406,VALID,72,VALID,0.343956,
2001-04-16, 03:09:00,VALID,917.652,VALID,0,VALID,99.2602,VALID,-0.0849042,VALID,19.8478,VALID,72,VALID,0.34375,
2001-04-16, 03:10:00,VALID,917.632,VALID,0,VALID,99.2589,VALID,-0.101885,VALID,19.8312,VALID,59,VALID,0.433308,
2001-04-16, 03:11:00,VALID,917.626,VALID,0,VALID,99.2551,VALID,-0.0849042,VALID,19.8476,VALID,36,VALID,0.342187,
2001-04-16, 03:12:00,VALID,917.599,VALID,0,VALID,99.2615,VALID,-0.101885,VALID,19.8406,VALID,41,VALID,0.137747,
2001-04-16, 03:13:00,VALID,917.596,VALID,0,VALID,99.2564,VALID,-0.0849042,VALID,19.8573,VALID,59,VALID,0.0420186,
2001-04-16, 03:14:00,VALID,917.594,VALID,0,VALID,99.2627,VALID,-0.101885,VALID,19.8541,VALID,90,VALID,0.247461,
2001-04-16, 03:15:00,VALID,917.585,VALID,0,VALID,99.2576,VALID,-0.0849042,VALID,19.8603,VALID,102,VALID,0.44963,
2001-04-16, 03:16:00,VALID,917.6,VALID,0,VALID,99.2564,VALID,-0.0849042,VALID,19.8702,VALID,102,VALID,0.503571,
2001-04-16, 03:17:00,VALID,917.587,VALID,0,VALID,99.25,VALID,-0.0679233,VALID,19.8568,VALID,105,VALID,0.502204,
2001-04-16, 03:18:00,VALID,917.572,VALID,0,VALID,99.2411,VALID,-0.101885,VALID,19.8406,VALID,119,VALID,0.515408,
2001-04-16, 03:19:00,VALID,917.549,VALID,0,VALID,99.236,VALID,-0.0849042,VALID,19.8406,VALID,143,VALID,0.605152,
2001-04-16, 03:20:00,VALID,917.518,VALID,0,VALID,99.2347,VALID,-0.0849042,VALID,19.8277,VALID,147,VALID,0.771635,
2001-04-16, 03:21:00,VALID,917.493,VALID,0,VALID,99.236,VALID,-0.0849042,VALID,19.8275,VALID,166,VALID,0.769942,
2001-04-16, 03:22:00,VALID,917.453,VALID,0,VALID,99.2233,VALID,-0.0849042,VALID,19.8409,VALID,182,VALID,0.622533,
2001-04-16, 03:23:00,VALID,917.426,VALID,0,VALID,99.2144,VALID,0.0169808,VALID,19.8327,VALID,194,VALID,0.559544,
2001-04-16, 03:24:00,VALID,917.418,VALID,0,VALID,99.1979,VALID,0,VALID,19.817,VALID,206,VALID,0.631727,
2001-04-16, 03:25:00,VALID,917.406,VALID,0,VALID,99.1801,VALID,0,VALID,19.8004,VALID,195,VALID,0.703547,
2001-04-16, 03:26:00,VALID,917.394,VALID,0,VALID,99.1661,VALID,0.0169808,VALID,19.7879,VALID,201,VALID,0.905428,
2001-04-16, 03:27:00,VALID,917.37,VALID,0,VALID,99.1661,VALID,0.0169808,VALID,19.7551,VALID,212,VALID,0.788662,
2001-04-16, 03:28:00,VALID,917.342,VALID,0,VALID,99.1699,VALID,0.0339617,VALID,19.7683,VALID,215,VALID,0.959936,
2001-04-16, 03:29:00,VALID,917.317,VALID,0,VALID,99.1432,VALID,0,VALID,19.7323,VALID,221,VALID,1.00633,
2001-04-16, 03:30:00,VALID,917.291,VALID,0,VALID,99.1254,VALID,0,VALID,19.6875,VALID,224,VALID,1.04235,
2001-04-16, 03:31:00,VALID,917.266,VALID,0,VALID,99.1152,VALID,0.0169808,VALID,19.662,VALID,224,VALID,1.2516,
2001-04-16, 03:32:00,VALID,917.246,VALID,0,VALID,99.0949,VALID,-0.0169808,VALID,19.6137,VALID,224,VALID,1.20593,
2001-04-16, 03:33:00,VALID,917.226,VALID,0,VALID,99.0987,VALID,-0.0169808,VALID,19.5785,VALID,229,VALID,0.978401,
2001-04-16, 03:34:00,VALID,917.213,VALID,0,VALID,99.1165,VALID,0,VALID,19.5327,VALID,227,VALID,0.839844,
2001-04-16, 03:35:00,VALID,917.204,VALID,0,VALID,99.1152,VALID,0,VALID,19.5004,VALID,225,VALID,0.955659,